Home   Weather   Columbus Park   Past weeks
Flag for USA

Past Weather in Columbus Park, Nebraska, USA — Yesterday and Last 2 Weeks

Now
86 °F

Clear.


Feels Like: 95 °F
Forecast: 93 / 78 °F
Wind: 5 mph from Southeast

Location: Millard Airport

Current Time: Jul 20, 2019 at 2:36:18 am

Latest Report: Jul 20, 2019 at 1:55 am


Visibility: 10 mi

Pressure: 29.76 "Hg

Humidity: 69%

Dew Point: 75 °F

Location of Columbus ParkLocation

Past Weather in Columbus Park — Graph

°F

Columbus Park Temperature Yesterday

Maximum temperature yesterday: 99 °F (at 4:55 pm)
Minimum temperature yesterday: 81 °F (at 6:55 am)
Average temperature yesterday: 90 °F

High & Low Weather Summary for the Past Weeks

 TemperatureHumidityPressure
High99 °F (Jul 19, 4:55 pm)96% (Jul 7, 6:35 am)30.19 "Hg (Jul 7, 6:35 am)
Low65 °F (Jul 11, 6:15 am)38% (Jul 11, 4:15 pm)29.65 "Hg (Jul 18, 6:35 pm)
Average81 °F70%29.95 "Hg
* Reported Jul 5 1:15 am — Jul 20 1:15 am, Columbus Park. Weather by CustomWeather, © 2019

Note: Actual official high and low records may vary slightly from our data, if they occured in-between our weather recording intervals... More about our weather records

Advertising

Columbus Park Weather History for the Previous 24 Hours

Scroll right to see more
 ConditionsComfort  
Time TempWeatherWind HumidityBarometerVisibility
1:15 am
Sat, Jul 20
87 °FClear.7 mph70%29.75 "Hg10 mi
12:55 am87 °FClear.7 mph70%29.75 "Hg10 mi
12:15 am88 °FClear.7 mph70%29.75 "Hg10 mi
11:55 pm
Fri, Jul 19
88 °FClear.6 mph71%29.74 "Hg10 mi
11:15 pm88 °FClear.5 mph71%29.74 "Hg10 mi
10:55 pm90 °FClear.6 mph68%29.74 "Hg10 mi
10:15 pm90 °FClear.7 mph67%29.73 "Hg10 mi
9:55 pm90 °FClear.8 mph67%29.73 "Hg10 mi
9:15 pm91 °FClear.6 mph66%29.71 "Hg10 mi
8:55 pm91 °FClear.6 mph66%29.71 "Hg10 mi
8:15 pm94 °FSunny.9 mph60%29.71 "Hg10 mi
7:55 pm95 °FSunny.7 mph59%29.70 "Hg10 mi
7:15 pm97 °FSunny.9 mph56%29.71 "Hg10 mi
6:55 pm97 °FSunny.10 mph54%29.70 "Hg10 mi
6:35 pm98 °FSunny.14 mph52%29.70 "Hg10 mi
6:15 pm98 °FSunny.12 mph53%29.71 "Hg10 mi
5:55 pm98 °FSunny.10 mph53%29.71 "Hg10 mi
5:10 pm99 °FSunny.10 mph52%29.71 "Hg10 mi
4:55 pm99 °FSunny.17 mph53%29.71 "Hg10 mi
4:15 pm98 °FSunny.14 mph53%29.71 "Hg10 mi
3:55 pm99 °FSunny.13 mph52%29.71 "Hg10 mi
3:15 pm97 °FSunny.15 mph52%29.73 "Hg10 mi
2:55 pm97 °FSunny.17 mph52%29.73 "Hg10 mi
2:35 pm97 °FSunny.15 mph52%29.73 "Hg10 mi
2:15 pm96 °FSunny.12 mph52%29.73 "Hg10 mi
1:55 pm96 °FSunny.14 mph53%29.74 "Hg10 mi
1:15 pm95 °FSunny.13 mph54%29.74 "Hg10 mi
12:55 pm94 °FSunny.12 mph55%29.75 "Hg10 mi
12:35 pm94 °FSunny.12 mph55%29.75 "Hg10 mi
12:15 pm94 °FSunny.15 mph55%29.76 "Hg10 mi
11:55 am93 °FSunny.12 mph55%29.76 "Hg10 mi
11:35 am92 °FSunny.10 mph56%29.75 "Hg10 mi
11:15 am92 °FSunny.10 mph56%29.76 "Hg10 mi
10:55 am91 °FSunny.7 mph56%29.76 "Hg10 mi
10:35 am90 °FSunny.10 mph58%29.76 "Hg10 mi
10:15 am89 °FSunny.12 mph59%29.76 "Hg10 mi
9:55 am89 °FSunny.10 mph61%29.76 "Hg10 mi
9:35 am88 °FSunny.7 mph62%29.76 "Hg10 mi
9:15 am88 °FSunny.12 mph64%29.76 "Hg10 mi
8:55 am87 °FSunny.10 mph65%29.76 "Hg10 mi
8:15 am85 °FSunny.9 mph67%29.75 "Hg10 mi
7:55 am84 °FSunny.7 mph70%29.74 "Hg10 mi
7:15 am81 °FSunny.6 mph78%29.74 "Hg10 mi
6:55 am81 °FSunny.5 mph77%29.74 "Hg10 mi
6:15 am82 °FSunny.5 mph74%29.72 "Hg10 mi
5:55 am82 °FClear.6 mph74%29.72 "Hg10 mi
5:35 am82 °FClear.6 mph74%29.73 "Hg10 mi
5:15 am82 °FClear.3 mph73%29.72 "Hg10 mi
4:55 am83 °FClear.5 mph71%29.72 "Hg10 mi
4:35 am83 °FClear.5 mph71%29.71 "Hg10 mi
4:15 am83 °FClear.3 mph73%29.71 "Hg10 mi
3:55 am82 °FClear.5 mph77%29.71 "Hg10 mi
3:15 am81 °FClear.3 mph81%29.71 "Hg10 mi
2:55 am82 °FClear.3 mph81%29.71 "Hg10 mi
2:15 am82 °FClear.3 mph81%29.72 "Hg10 mi
Weather by CustomWeather, © 2019

See weather overview